DW8851 Weather Reports


time (UTC)temp
C
wind
direction
speed
KPH
gust
KPH
rain 1hr
cm
rain 24hr
cm
rain mn
cm
humidity
%
barometer
mb
20260506161554 21 360 3.2 17.7 0.00 0.00 0.00 69 1007.4
20260506160045 20 360 3.2 9.7 0.00 0.00 0.00 71 1007.9
20260506154540 20 360 4.8 19.3 0.00 0.00 0.00 71 1008.1
20260506153039 20 360 9.7 19.3 0.00 0.00 0.00 71 1008.2
20260506151536 20 360 3.2 16.1 0.00 0.00 0.00 73 1008.4
20260506150032 19 360 8.0 16.1 0.00 0.00 0.00 74 1008.6
20260506144528 18 360 0.0 16.1 0.00 0.00 0.00 76 1008.7
20260506143030 18 360 4.8 16.1 0.00 0.00 0.00 76 1008.8
20260506141533 18 360 3.2 16.1 0.00 0.00 0.00 77 1009.0
20260506140025 18 360 3.2 8.0 0.00 0.00 0.00 77 1009.0
20260506134522 17 360 3.2 17.7 0.00 0.00 0.00 79 1008.8
20260506133019 17 360 6.4 20.9 0.00 0.00 0.00 80 1008.7
20260506131522 16 360 3.2 16.1 0.00 0.00 0.00 81 1008.9
20260506130018 16 360 4.8 19.3 0.00 0.00 0.00 81 1009.0
20260506124515 16 360 3.2 14.5 0.00 0.00 0.00 82 1009.1
20260506123015 16 360 1.6 17.7 0.00 0.00 0.00 82 1009.2
20260506121513 16 360 4.8 19.3 0.00 0.00 0.00 82 1009.3
20260506120022 16 360 3.2 14.5 0.00 0.00 0.00 82 1009.4
20260506114512 16 360 3.2 12.9 0.00 0.00 0.00 83 1009.3
20260506113012 15 360 3.2 14.5 0.00 0.00 0.00 83 1009.4
20260506111511 15 360 3.2 12.9 0.00 0.00 0.00 85 1009.2
20260506110008 15 360 1.6 12.9 0.00 0.00 0.00 85 1009.7
20260506104505 14 360 1.6 8.0 0.00 0.00 0.00 85 1009.6
20260506103004 14 360 1.6 9.7 0.00 0.00 0.00 85 1009.6
20260506101502 14 360 1.6 14.5 0.00 0.00 0.00 85 1009.4
20260506100105 14 360 1.6 6.4 0.00 0.00 0.00 85 1009.2
20260506094612 14 360 1.6 6.4 0.00 0.00 0.00 84 1009.3
20260506093055 14 360 1.6 8.0 0.00 0.00 0.00 84 1009.3
20260506091554 15 360 3.2 9.7 0.00 0.00 0.00 83 1009.3
20260506090053 15 360 1.6 8.0 0.00 0.00 0.00 83 1009.3
20260506084556 15 360 1.6 8.0 0.00 0.00 0.00 82 1009.3
20260506083057 15 360 3.2 12.9 0.00 0.00 0.00 82 1009.6
20260506081550 15 360 1.6 6.4 0.00 0.00 0.00 82 1009.4
20260506080103 15 360 1.6 4.8 0.00 0.00 0.00 81 1009.4
20260506073055 15 360 0.0 9.7 0.00 0.00 0.00 80 1009.4
20260506071543 16 360 1.6 6.4 0.00 0.00 0.00 79 1009.3
20260506061536 16 360 3.2 9.7 0.00 0.00 0.00 76 1008.9
20260506044535 17 360 3.2 16.1 0.00 0.00 0.00 71 1009.2
20260506043025 17 360 4.8 14.5 0.00 0.00 0.00 70 1009.1
20260506041532 17 360 6.4 12.9 0.00 0.00 0.00 70 1009.3
20260506040021 17 360 4.8 19.3 0.00 0.00 0.00 69 1009.3
20260506034520 17 360 1.6 14.5 0.00 0.00 0.00 69 1009.2
20260506033020 17 360 4.8 12.9 0.00 0.00 0.00 69 1009.4
20260506031519 17 360 1.6 9.7 0.00 0.00 0.00 69 1009.4
20260506030018 17 360 1.6 8.0 0.00 0.00 0.00 68 1009.5
20260506024519 17 360 4.8 14.5 0.00 0.00 0.00 67 1009.3
20260506023020 17 360 1.6 12.9 0.00 0.00 0.00 67 1009.3
20260506021518 18 360 4.8 14.5 0.00 0.00 0.00 66 1009.2
20260506020016 18 360 4.8 16.1 0.00 0.00 0.00 65 1009.1
20260506014516 18 360 4.8 17.7 0.00 0.00 0.00 64 1009.2
20260506013016 18 360 3.2 16.1 0.00 0.00 0.00 64 1008.8
20260506011535 19 360 4.8 12.9 0.00 0.00 0.00 63 1008.7
20260506010013 20 360 3.2 20.9 0.00 0.00 0.00 62 1008.5
20260506004525 20 360 8.0 17.7 0.00 0.00 0.00 61 1008.4
20260506003012 20 360 6.4 19.3 0.00 0.00 0.00 60 1008.1
20260506001511 20 360 4.8 14.5 0.00 0.00 0.00 60 1008.0
20260506000010 21 360 6.4 17.7 0.00 0.00 0.00 59 1007.7
20260505234510 21 360 6.4 22.5 0.00 0.00 0.00 57 1007.4
20260505233020 21 360 6.4 20.9 0.00 0.00 0.00 57 1007.3
20260505231508 22 360 9.7 20.9 0.00 0.00 0.00 56 1006.9
20260505230008 22 360 6.4 19.3 0.00 0.00 0.00 55 1006.7
20260505224507 23 360 9.7 24.1 0.00 0.00 0.00 53 1006.6
20260505223014 23 360 4.8 19.3 0.00 0.00 0.00 53 1006.4
20260505221504 23 360 8.0 20.9 0.00 0.00 0.00 53 1006.3
20260505220003 23 184 6.4 20.9 0.00 0.00 0.00 52 1006.2
20260505214508 24 209 11.3 33.8 0.00 0.00 0.00 50 1006.1
20260505213003 25 180 9.7 17.7 0.00 0.00 0.00 50 1006.0
20260505211600 25 202 4.8 16.1 0.00 0.00 0.00 50 1006.0
20260505210058 25 173 6.4 19.3 0.00 0.00 0.00 50 1005.9
20260505204606 25 159 9.7 20.9 0.00 0.00 0.00 49 1005.8
20260505203106 25 180 8.0 29.0 0.00 0.00 0.00 49 1005.5
20260505201556 26 360 9.7 30.6 0.00 0.00 0.00 46 1005.6
20260505200054 26 360 8.0 29.0 0.00 0.00 0.00 45 1005.8
20260505194654 27 360 12.9 32.2 0.00 0.00 0.00 44 1005.5
20260505193052 27 360 6.4 20.9 0.00 0.00 0.00 45 1005.6
20260505191552 27 360 8.0 27.4 0.00 0.00 0.00 45 1005.6
20260505190049 27 360 9.7 37.0 0.00 0.00 0.00 42 1005.8
20260505184553 27 360 9.7 24.1 0.00 0.00 0.00 44 1006.0
20260505183052 27 360 6.4 25.7 0.00 0.00 0.00 47 1006.2
20260505181547 27 360 8.0 22.5 0.00 0.00 0.00 45 1006.2
20260505180044 27 360 8.0 25.7 0.00 0.00 0.00 45 1006.4
20260505174542 27 360 6.4 22.5 0.00 0.00 0.00 48 1006.6
20260505173039 26 360 6.4 27.4 0.00 0.00 0.00 48 1006.8
20260505171536 26 360 9.7 22.5 0.00 0.00 0.00 48 1007.0
20260505170033 26 360 8.0 20.9 0.00 0.00 0.00 48 1007.1
20260505164545 25 360 6.4 30.6 0.00 0.00 0.00 51 1007.5
20260505163027 25 360 6.4 24.1 0.00 0.00 0.00 52 1007.8